When you browse on this site, cookies collect data to enhance your experience and personalize the content and advertising you see.
Visit our Privacy Policy to learn more. By continuing to use the site, you agree to this use of cookies and data.

Stündliche Wetter Lobcha

Heute, 10 Juli, Freitag

Zeit Temperatur Niederschläge Wind Luftdruck Luftfeuchtigkeit
00:00 +13°C° 0 mm 2 m/S 751 mmHg 84%
01:00 +13°C° 0 mm 2 m/S 751 mmHg 88%
02:00 +13°C° 0 mm 2 m/S 751 mmHg 91%
03:00 +13°C° 0 mm 2 m/S 750 mmHg 91%
04:00 +13°C° 0 mm 3 m/S 750 mmHg 91%
05:00 +13°C° 0 mm 3 m/S 750 mmHg 91%
06:00 +15°C° 0.1 mm 4 m/S 750 mmHg 88%
07:00 +17°C° 0.1 mm 4 m/S 750 mmHg 86%
08:00 +17°C° 0 mm 5 m/S 750 mmHg 83%
09:00 +20°C° 0 mm 5 m/S 750 mmHg 81%
10:00 +21°C° 0 mm 5 m/S 749 mmHg 79%
11:00 +22°C° 0 mm 5 m/S 749 mmHg 77%
12:00 +23°C° 0.5 mm 5 m/S 749 mmHg 74%
13:00 +25°C° 0.5 mm 5 m/S 749 mmHg 72%
14:00 +26°C° 0.5 mm 5 m/S 748 mmHg 70%
15:00 +27°C° 0.3 mm 5 m/S 748 mmHg 71%
16:00 +27°C° 0.3 mm 5 m/S 748 mmHg 73%
17:00 +27°C° 0.3 mm 4 m/S 748 mmHg 75%
18:00 +25°C° 0.3 mm 4 m/S 748 mmHg 80%
19:00 +23°C° 0.3 mm 4 m/S 748 mmHg 84%
20:00 +22°C° 0.3 mm 3 m/S 748 mmHg 89%
21:00 +22°C° 0.2 mm 3 m/S 748 mmHg 90%
22:00 +21°C° 0.2 mm 4 m/S 748 mmHg 92%
23:00 +20°C° 0.2 mm 4 m/S 748 mmHg 93%

Morgen, 11 Juli, Samstag

Zeit Temperatur Niederschläge Wind Luftdruck Luftfeuchtigkeit
00:00 +20°C° 0.1 mm 4 m/S 748 mmHg 93%
01:00 +20°C° 0.1 mm 5 m/S 748 mmHg 92%
02:00 +20°C° 0.1 mm 5 m/S 748 mmHg 92%
03:00 +20°C° 0.1 mm 5 m/S 748 mmHg 92%
04:00 +19°C° 0.1 mm 4 m/S 748 mmHg 93%
05:00 +19°C° 0.1 mm 4 m/S 748 mmHg 94%
06:00 +20°C° 0 mm 3 m/S 749 mmHg 91%
07:00 +21°C° 0 mm 3 m/S 749 mmHg 88%
08:00 +23°C° 0 mm 2 m/S 749 mmHg 85%
09:00 +24°C° 0 mm 2 m/S 750 mmHg 81%
10:00 +25°C° 0 mm 2 m/S 750 mmHg 76%
11:00 +26°C° 0 mm 2 m/S 750 mmHg 72%
12:00 +26°C° 0.2 mm 3 m/S 750 mmHg 71%
13:00 +26°C° 0.2 mm 3 m/S 750 mmHg 71%
14:00 +26°C° 0.2 mm 3 m/S 750 mmHg 70%
15:00 +25°C° 0.1 mm 4 m/S 750 mmHg 72%
16:00 +23°C° 0.1 mm 4 m/S 750 mmHg 74%
17:00 +22°C° 0.1 mm 5 m/S 750 mmHg 76%
18:00 +20°C° 0.2 mm 4 m/S 750 mmHg 78%
19:00 +19°C° 0.2 mm 4 m/S 750 mmHg 80%
20:00 +17°C° 0.2 mm 4 m/S 751 mmHg 82%
21:00 +17°C° 0.3 mm 4 m/S 751 mmHg 82%
22:00 +15°C° 0.3 mm 4 m/S 751 mmHg 83%
23:00 +15°C° 0.3 mm 5 m/S 752 mmHg 83%

übermorgen, 12 Juli, Sonntag

Zeit Temperatur Niederschläge Wind Luftdruck Luftfeuchtigkeit
00:00 +14°C° 0.2 mm 4 m/S 752 mmHg 85%
01:00 +13°C° 0.2 mm 4 m/S 751 mmHg 87%
02:00 +13°C° 0.2 mm 4 m/S 751 mmHg 89%
03:00 +12°C° 0.7 mm 4 m/S 751 mmHg 91%
04:00 +12°C° 0.7 mm 4 m/S 751 mmHg 93%
05:00 +11°C° 0.7 mm 4 m/S 751 mmHg 95%
06:00 +12°C° 0.5 mm 4 m/S 752 mmHg 95%
07:00 +12°C° 0.5 mm 4 m/S 752 mmHg 95%
08:00 +12°C° 0.5 mm 4 m/S 752 mmHg 96%
09:00 +12°C° 0.5 mm 4 m/S 752 mmHg 95%
10:00 +12°C° 0.5 mm 4 m/S 752 mmHg 94%
11:00 +11°C° 0.5 mm 4 m/S 752 mmHg 93%
12:00 +11°C° 0.5 mm 4 m/S 753 mmHg 93%
13:00 +11°C° 0.5 mm 4 m/S 753 mmHg 93%
14:00 +11°C° 0.5 mm 4 m/S 753 mmHg 93%
15:00 +11°C° 0.6 mm 4 m/S 753 mmHg 93%
16:00 +11°C° 0.6 mm 4 m/S 753 mmHg 93%
17:00 +11°C° 0.6 mm 3 m/S 753 mmHg 94%
18:00 +12°C° 0.1 mm 2 m/S 753 mmHg 94%
19:00 +12°C° 0.1 mm 2 m/S 753 mmHg 94%
20:00 +12°C° 0.1 mm 1 m/S 753 mmHg 93%
21:00 +12°C° 0 mm 1 m/S 753 mmHg 94%
22:00 +10°C° 0 mm 2 m/S 753 mmHg 94%
23:00 +10°C° 0 mm 2 m/S 752 mmHg 95%

13 Juli, Montag

Zeit Temperatur Niederschläge Wind Luftdruck Luftfeuchtigkeit
00:00 +9°C° 0 mm 2 m/S 752 mmHg 95%
01:00 +9°C° 0 mm 3 m/S 752 mmHg 96%
02:00 +9°C° 0 mm 3 m/S 752 mmHg 96%
03:00 +9°C° 0 mm 3 m/S 752 mmHg 96%
04:00 +9°C° 0 mm 3 m/S 752 mmHg 96%
05:00 +9°C° 0 mm 3 m/S 752 mmHg 96%
06:00 +10°C° 0 mm 3 m/S 752 mmHg 91%
07:00 +12°C° 0 mm 4 m/S 752 mmHg 86%
08:00 +13°C° 0 mm 4 m/S 751 mmHg 81%
09:00 +15°C° 0 mm 4 m/S 751 mmHg 75%
10:00 +16°C° 0 mm 5 m/S 751 mmHg 69%
11:00 +17°C° 0 mm 5 m/S 751 mmHg 63%
12:00 +17°C° 0.1 mm 5 m/S 751 mmHg 62%
13:00 +19°C° 0.1 mm 5 m/S 751 mmHg 62%
14:00 +19°C° 0.1 mm 5 m/S 750 mmHg 61%
15:00 +19°C° 0.1 mm 4 m/S 750 mmHg 62%
16:00 +19°C° 0.1 mm 4 m/S 750 mmHg 63%
17:00 +19°C° 0.1 mm 4 m/S 749 mmHg 64%
18:00 +18°C° 0 mm 3 m/S 749 mmHg 69%
19:00 +17°C° 0 mm 3 m/S 749 mmHg 75%
20:00 +15°C° 0 mm 2 m/S 749 mmHg 81%
21:00 +14°C° 0 mm 2 m/S 749 mmHg 85%
22:00 +14°C° 0 mm 2 m/S 749 mmHg 89%
23:00 +13°C° 0 mm 2 m/S 749 mmHg 93%

14 Juli, Dienstag

Zeit Temperatur Niederschläge Wind Luftdruck Luftfeuchtigkeit
00:00 +12°C° 0 mm 2 m/S 749 mmHg 94%
01:00 +12°C° 0 mm 2 m/S 749 mmHg 95%
02:00 +12°C° 0 mm 2 m/S 749 mmHg 95%
03:00 +10°C° 0 mm 2 m/S 749 mmHg 95%
04:00 +10°C° 0 mm 2 m/S 749 mmHg 95%
05:00 +10°C° 0 mm 2 m/S 749 mmHg 96%
06:00 +12°C° 0 mm 3 m/S 749 mmHg 90%
07:00 +14°C° 0 mm 3 m/S 749 mmHg 85%
08:00 +17°C° 0 mm 3 m/S 750 mmHg 79%
09:00 +18°C° 0.1 mm 3 m/S 750 mmHg 74%
10:00 +19°C° 0.1 mm 3 m/S 750 mmHg 68%
11:00 +20°C° 0.1 mm 4 m/S 750 mmHg 62%
12:00 +21°C° 0 mm 4 m/S 750 mmHg 60%
13:00 +21°C° 0 mm 4 m/S 749 mmHg 58%
14:00 +22°C° 0 mm 4 m/S 749 mmHg 55%
15:00 +21°C° 0 mm 4 m/S 749 mmHg 57%
16:00 +21°C° 0 mm 4 m/S 749 mmHg 59%
17:00 +21°C° 0 mm 4 m/S 749 mmHg 61%
18:00 +19°C° 0 mm 3 m/S 749 mmHg 67%
19:00 +18°C° 0 mm 3 m/S 749 mmHg 72%
20:00 +16°C° 0 mm 2 m/S 749 mmHg 78%
21:00 +15°C° 0 mm 2 m/S 750 mmHg 81%
22:00 +14°C° 0 mm 2 m/S 750 mmHg 84%
23:00 +13°C° 0 mm 2 m/S 750 mmHg 88%

15 Juli, Mittwoch

Zeit Temperatur Niederschläge Wind Luftdruck Luftfeuchtigkeit
00:00 +12°C° 0 mm 2 m/S 750 mmHg 89%
01:00 +12°C° 0 mm 2 m/S 751 mmHg 90%
02:00 +12°C° 0 mm 2 m/S 751 mmHg 91%
03:00 +12°C° 0 mm 2 m/S 751 mmHg 91%
04:00 +10°C° 0 mm 2 m/S 751 mmHg 91%
05:00 +11°C° 0 mm 1 m/S 751 mmHg 91%
06:00 +13°C° 0 mm 1 m/S 751 mmHg 85%
07:00 +15°C° 0 mm 1 m/S 751 mmHg 79%
08:00 +17°C° 0 mm 2 m/S 751 mmHg 73%
09:00 +20°C° 0 mm 1 m/S 751 mmHg 68%
10:00 +21°C° 0 mm 1 m/S 751 mmHg 62%
11:00 +22°C° 0 mm 1 m/S 751 mmHg 56%
12:00 +23°C° 0 mm 1 m/S 751 mmHg 56%
13:00 +23°C° 0 mm 1 m/S 751 mmHg 55%
14:00 +23°C° 0 mm 1 m/S 751 mmHg 54%
15:00 +23°C° 0 mm 1 m/S 751 mmHg 55%
16:00 +23°C° 0 mm 1 m/S 751 mmHg 56%
17:00 +23°C° 0 mm 1 m/S 751 mmHg 57%
18:00 +22°C° 0 mm 1 m/S 751 mmHg 62%
19:00 +18°C° 0 mm 0 m/S 751 mmHg 67%
20:00 +17°C° 0 mm 0 m/S 751 mmHg 71%
21:00 +18°C° 0 mm 1 m/S 751 mmHg 73%
22:00 +16°C° 0 mm 1 m/S 751 mmHg 74%
23:00 +15°C° 0 mm 1 m/S 751 mmHg 76%
Mehr zeigen